Regional Weather Roundup
Issued by NWS Albany, NY

Home | Current Version | Previous Version | Graphics & Text | Print | Product List | Glossary Off
Versions: 1 2 3 4 5 6 7 8 9 10 11 12 13 14 15 16 17 18 19 20 21 22 23 24 25 26 27 28 29 30 31 32 33 34 35 36 37 38 39 40 41 42 43 44 45 46 47 48 49 50

000
ASUS41 KALY 262010
RWRALY

NEW YORK STATE HOURLY WEATHER ROUNDUP
NATIONAL WEATHER SERVICE ALBANY NY
400 PM EDT TUE MAY 26 2015

NOTE: "FAIR" INDICATES FEW OR NO CLOUDS BELOW 12,000 FEET WITH NO
SIGNIFICANT WEATHER AND/OR NO OBSTRUCTIONS TO VISIBILITY.

NYZ032-033-038>043-046>054-057>066-NYZ062>081-262100-
EAST


CITY           SKY/WX    TMP DP  RH WIND       PRES   REMARKS
ALBANY         PTSUNNY   85  64  49 S9        30.09F
GLENS FALLS    PTSUNNY   86  59  39 SW14      30.05F
POUGHKEEPSIE   LGT RAIN  84  65  52 SW6       30.13R
NEWBURGH       PTSUNNY   84  68  58 SW12      30.15S
MONTGOMERY     PTSUNNY   82  70  66 N7        30.13S
WHITE PLAINS   PTSUNNY   83  60  45 S13G20    30.15F
ISLIP          PTSUNNY   73  61  65 SW17G24   30.18F
NEW YORK CITY  PTSUNNY   84  60  44 S16       30.14F
CENTRAL PARK   MOSUNNY   85  60  42 VRB7      30.17F
$$

NYZ005>009-017-018-044>046-055-056-262100-
CENTRAL


CITY           SKY/WX    TMP DP  RH WIND       PRES   REMARKS
FULTON         CLOUDY    81  64  56 SW10      30.08S
SYRACUSE       PTSUNNY   81  63  54 S13       30.08F
ROME           PTSUNNY   83  62  49 SW12      30.10F
ELMIRA         LGT RAIN  79  68  69 SW10      30.13S
BINGHAMTON     PTSUNNY   74  65  73 S7        30.17F
MONTICELLO     PTSUNNY   79  66  65 S13       30.18F
$$

NYZ026>034-041>043-262100-
NORTH


CITY           SKY/WX    TMP DP  RH WIND       PRES   REMARKS
WATERTOWN      SUNNY     81  65  58 W10       30.06F
FORT DRUM      NOT AVBL
MASSENA        MOSUNNY   84  62  47 SW18G28   30.02S
PLATTSBURGH    MOSUNNY   89  55  31 W10G18    30.00S
$$

NYZ001>004-010>016-019>021-262100-
WEST


CITY           SKY/WX    TMP DP  RH WIND       PRES   REMARKS
NIAGARA FALLS  PTSUNNY   79  63  57 SW16G22   30.05F
BUFFALO        PTSUNNY   79  63  57 SW9       30.06F
DUNKIRK        MOSUNNY   76  65  68 NW6       30.07F
JAMESTOWN      PTSUNNY   75  63  64 SW12G17   30.13F
WELLSVILLE     PTSUNNY   75  62  64 S8        30.17F
ROCHESTER      CLOUDY    80  64  58 SW10      30.07F
PENN YAN       PTSUNNY   82  63  52 S8        30.11F
$$

             KEY
       WCI = WIND CHILL INDEX
       VSB = VISIBILITY
       HX  = HEAT INDEX
$$


USA.gov is the U.S. government's official web portal to all federal, state and local government web resources and services.